Location: Bauerbach
(50.4985°N, 10.3912°E)
Time: 01:11:22
(UTC+00:00)

Cosmos 909 Rocket - Pass Details

Date: 13 January 2026
Orbit: 992 x 2087 km, 65.9° (Epoch: 6 February)

Event Time Altitude Azimuth Distance (km) Brightness Sun altitude
Exits shadow 03:38:02 65° 124° (SE) 1,147 4.3 -33.6°
Drops below altitude 10° 03:44:00 10° 139° (SE) 3,060 6.9 -32.7°
Sets 03:46:55 0° 141° (SE) 4,147 7.7 -32.2°
